Terug naar catalogus

COSMOS 1275 DEB

ActiefPO
NORAD 42115·DEBRIS·🇷🇺 Russia

Gelanceerd Jun 4, 1981 vanaf Plesetsk Cosmodrome

Loading…

Volgende Passages (komende 24 uur)

TLE

VersSource: Space-Track

Epoch: Sep 14, 2026, 17:30 UTC

1 42115U 81053QB  26257.72929900  .00002330  00000-0  12601-2 0  9990
2 42115  82.6579 164.6624 0062035  14.6418 345.6535 14.11251750655285

Volg COSMOS 1275 DEB in realtime met AllMySat

Download on the App Store